[[{"header":{"parameterUnit":"m.s-1","parameterCategory":1,"la1":30.2991,"la2":30.254,"lo1":-89.0895,"lo2":-89.0444,"dy":0.0017,"dx":0.0017,"nx":28,"ny":28,"refTime":"2025-04-06T09:00:00:Z","depth":0,"parameterNumber":2,"parameterNumberName":"U-component_of_WINDS"},"data":[0,0,0,0,0,0,0,0,0,0,0,0,0,0,0,0,0,0,0,0,0,0,0,0,0,0,0,0,0,0,0,0,0,0,0,0,0,0,0,0,0,0,0,0,0,0,0,0,0,0,0,0,0,0,0,0,0,0,0.675,0.6749,0,0.6733,0.6733,0.6733,0.6689,0.6688,0.6687,0.6686,0.6672,0.6672,0.6673,0,0,0,0,0,0,0,0,0,0,0,0,0,0.6745,0.6746,0.675,0.6749,0.6749,0.6733,0.6733,0.6733,0.6689,0.6688,0.6687,0.6686,0.6671,0.6672,0.6673,0,0,0,0,0,0,0,0,0,0,0,0,0,0.674,0.6746,0.675,0.6725,0.6723,0.6733,0.6733,0.6733,0.6689,0.6688,0.6686,0.6685,0.6671,0.6672,0.6673,0.6706,0,0,0.6675,0.6675,0,0,0,0,0,0,0,0,0.674,0.674,0.6729,0.6727,0.6724,0.6711,0.6726,0.6724,0.669,0.6702,0.6686,0.6684,0.6686,0.6686,0.6686,0.6705,0.6705,0.6675,0.6676,0.6676,0.6676,0,0,0,0,0,0,0,0.6741,0.6741,0.6743,0.6729,0.6726,0.6716,0.6714,0.6725,0.6702,0.6701,0.6698,0.6696,0.6685,0.6685,0.6685,0.6704,0.6675,0.6676,0.6676,0.6677,0.675,0.6751,0,0,0,0,0,0,0.6744,0.6741,0.6744,0.6743,0.6729,0.6717,0.6715,0.6717,0.6702,0.6698,0.6697,0.6694,0.6685,0.6684,0.6684,0.6722,0.6676,0.6677,0.6677,0.6748,0.675,0.6752,0,0,0,0,0,0,0.6744,0.6745,0.6744,0.6741,0.674,0.6719,0.6722,0.6718,0.6718,0.6699,0.6695,0.6702,0.6683,0.6683,0.6701,0.6721,0.6677,0.6678,0.6747,0.6749,0.6751,0.6798,0,0,0,0,0,0,0.6744,0.6745,0.6757,0.6742,0.6741,0.676,0.6723,0.6718,0.6719,0.6715,0.6703,0.6699,0.6682,0.67,0.6701,0.6721,0.6678,0.6745,0.6748,0.675,0.6794,0.6801,0.6807,0,0,0,0,0,0.6744,0.6771,0.6758,0.6758,0.6755,0.6762,0.6761,0.674,0.6721,0.6733,0.6721,0.67,0.6718,0.6702,0.6703,0.6724,0.6743,0.6747,0.675,0.6791,0.68,0.6807,0,0,0,0,0,0,0.6791,0.6769,0.6754,0.6776,0.6771,0.6754,0.6769,0.675,0.6751,0.6747,0.6721,0.6719,0.674,0.6733,0.6715,0.6755,0.6727,0.6731,0.6758,0.6766,0.6772,0.6774,0.6679,0,0,0,0,0,0.6804,0.681,0.6791,0.6813,0.6811,0.679,0.6793,0.6777,0.6771,0.6768,0.6758,0.6753,0.6758,0.6762,0.6765,0.6793,0.679,0.6808,0.6814,0.682,0.6823,0.6838,0.6845,0.6763,0.6763,0.6763,0,0,0.683,0.6819,0.6825,0.6822,0.6816,0.6824,0.6789,0.6799,0.6805,0.677,0.6785,0.6778,0.6771,0.6794,0.6803,0.6789,0.6845,0.6824,0.6828,0.6829,0.6842,0.685,0.6857,0.6765,0.6765,0.6765,0,0,0.6883,0.6875,0.6892,0.6887,0.6878,0.6864,0.6868,0.6854,0.6847,0.6862,0.6836,0.6843,0.6852,0.6848,0.6847,0.6898,0.6878,0.69,0.6934,0.6948,0.6954,0.696,0.6978,0.6985,0.6903,0.6904,0.6904,0,0.6917,0.6927,0.6904,0.6915,0.6914,0.6883,0.69,0.6896,0.689,0.689,0.6874,0.6884,0.6878,0.6899,0.6911,0.6912,0.6916,0.6901,0.6955,0.6961,0.6965,0.6982,0.6989,0.6906,0.6906,0.6906,0.6905,0,0.697,0.6978,0.6993,0.6986,0.6987,0.7002,0.6981,0.6985,0.6969,0.6957,0.6973,0.6963,0.6964,0.6968,0.6953,0.6987,0.6979,0.696,0.6931,0.6976,0.6992,0.6998,0.691,0.6909,0.6908,0.6908,0,0,0.7051,0.7031,0.7037,0.7033,0.7021,0.7026,0.704,0.704,0.7044,0.704,0.7051,0.7059,0.7041,0.704,0.7024,0.7037,0.7077,0.7016,0.7015,0.7027,0.7114,0.7129,0.7137,0.7064,0.7065,0.7066,0.7115,0,0.7101,0.7121,0.71,0.7125,0.7132,0.7102,0.7113,0.7108,0.7097,0.7102,0.709,0.7096,0.7071,0.7071,0.7082,0.707,0.7095,0.7066,0.7075,0.7075,0.7077,0.7145,0.716,0.7207,0.7121,0.7122,0.7123,0,0.7161,0.7159,0.7184,0.717,0.7172,0.7183,0.7181,0.7186,0.7179,0.717,0.7169,0.715,0.7162,0.7135,0.7152,0.7133,0.7136,0.7131,0.7132,0.7132,0.7102,0.7147,0.7221,0.7228,0.7132,0.7131,0.7131,0,0.7217,0.7221,0.7237,0.7235,0.7219,0.7227,0.7221,0.7212,0.7213,0.7212,0.7213,0.7213,0.7214,0.7215,0.7197,0.7178,0.7216,0.7187,0.721,0.721,0.7219,0.7219,0.7295,0.7221,0.7221,0.7221,0.7221,0,0.7274,0.7291,0.7262,0.7272,0.729,0.7266,0.7284,0.7275,0.7268,0.7276,0.725,0.7258,0.7234,0.7239,0.7225,0.7242,0.7242,0.7236,0.7232,0.7238,0.7239,0.7239,0.7235,0.7222,0.7222,0.7222,0.7221,0,0.734,0.7321,0.7336,0.732,0.7316,0.733,0.7316,0.7325,0.7312,0.7322,0.7323,0.7304,0.7309,0.7291,0.7294,0.7284,0.7309,0.7299,0.7311,0.7308,0.7331,0.7329,0.741,0.7419,0.734,0.734,0.7341,0,0.7377,0.7389,0.7374,0.7377,0.7372,0.7377,0.7378,0.7355,0.7357,0.735,0.736,0.7363,0.7364,0.7374,0.7361,0.7363,0.7353,0.7382,0.7354,0.7359,0.7354,0.7353,0.7354,0.7387,0.7388,0.7389,0.739,0,0.7446,0.7436,0.7438,0.7437,0.7438,0.7436,0.7433,0.7437,0.7412,0.7416,0.7421,0.7422,0.7424,0.7428,0.7427,0.7421,0.7402,0.7399,0.7404,0.741,0.7416,0.7413,0.7326,0.7397,0.7396,0.7396,0.7395,0.7395,0.7498,0.7508,0.7498,0.7501,0.7496,0.7493,0.75,0.7488,0.7492,0.7491,0.7478,0.7485,0.7478,0.7475,0.7471,0.7477,0.7464,0.7472,0.7474,0.7476,0.748,0.7416,0.7477,0.7477,0.7476,0.7476,0.7476,0,0.7565,0.7557,0.756,0.7556,0.7559,0.7539,0.7534,0.7538,0.7545,0.7539,0.7541,0.7546,0.755,0.7537,0.7538,0.7545,0.7537,0.7547,0.7546,0.7545,0.7491,0.7486,0.7554,0.7554,0.7554,0.7554,0.7554,0.7554,0.76,0.7615,0.7604,0.7616,0.7608,0.7614,0.7613,0.7611,0.7606,0.7614,0.7616,0.7607,0.7599,0.7599,0.7602,0.7598,0.76,0.7613,0.7606,0.7556,0.7549,0.7541,0.7537,0.7613,0.7614,0.7659,0.7659,0.766]},{"header":{"parameterUnit":"m.s-1","parameterCategory":1,"la1":30.2991,"la2":30.254,"lo1":-89.0895,"lo2":-89.0444,"dy":0.0017,"dx":0.0017,"nx":28,"ny":28,"refTime":"2025-04-06T09:00:00:Z","depth":0,"parameterNumber":3,"parameterNumberName":"V-component_of_WINDS"},"data":[0,0,0,0,0,0,0,0,0,0,0,0,0,0,0,0,0,0,0,0,0,0,0,0,0,0,0,0,0,0,0,0,0,0,0,0,0,0,0,0,0,0,0,0,0,0,0,0,0,0,0,0,0,0,0,0,0,0,8.5017,8.5018,0,8.5147,8.5148,8.5149,8.513,8.5128,8.5126,8.5124,8.5254,8.526,8.5265,0,0,0,0,0,0,0,0,0,0,0,0,0,8.4752,8.4757,8.5017,8.5018,8.502,8.5146,8.5148,8.515,8.513,8.5128,8.5125,8.5123,8.5252,8.5259,8.5266,0,0,0,0,0,0,0,0,0,0,0,0,0,8.4872,8.4758,8.5016,8.5026,8.5028,8.5146,8.5148,8.515,8.5131,8.5128,8.5124,8.5121,8.525,8.5258,8.5267,8.5383,0,0,8.5292,8.5295,0,0,0,0,0,0,0,0,8.4866,8.4882,8.5023,8.5025,8.5028,8.5119,8.5102,8.5228,8.5132,8.5092,8.5124,8.512,8.5212,8.5223,8.5254,8.5389,8.5395,8.5293,8.5298,8.5301,8.5303,0,0,0,0,0,0,0,8.4857,8.4877,8.5068,8.5025,8.5028,8.5023,8.5037,8.5126,8.5168,8.5095,8.5094,8.511,8.5212,8.5246,8.5257,8.5397,8.5292,8.53,8.5305,8.5308,8.5637,8.564,0,0,0,0,0,0,8.4847,8.487,8.5064,8.5072,8.4937,8.503,8.5046,8.5093,8.5167,8.5176,8.5112,8.5108,8.5234,8.5248,8.5262,8.5405,8.5301,8.5309,8.5314,8.5633,8.5637,8.5641,0,0,0,0,0,0,8.4841,8.4864,8.5059,8.4971,8.4995,8.5039,8.5092,8.5097,8.5131,8.5181,8.5188,8.5139,8.5232,8.525,8.5354,8.5409,8.5313,8.532,8.5628,8.5634,8.5639,8.5691,0,0,0,0,0,0,8.4833,8.4862,8.4907,8.4972,8.5,8.5149,8.5095,8.5102,8.5146,8.5142,8.5208,8.5216,8.5231,8.5342,8.5362,8.5419,8.5326,8.5624,8.5631,8.5638,8.5685,8.5698,8.5709,0,0,0,0,0,8.4824,8.4915,8.4909,8.4933,8.5057,8.5152,8.5168,8.5184,8.515,8.5196,8.5228,8.5214,8.54,8.5352,8.5375,8.5435,8.562,8.5629,8.5637,8.5679,8.5695,8.5709,0,0,0,0,0,0,8.4854,8.4924,8.4918,8.5033,8.5087,8.5148,8.5206,8.52,8.5264,8.5257,8.5274,8.5289,8.5395,8.5425,8.5371,8.5553,8.5505,8.5519,8.553,8.5545,8.5557,8.5548,8.5333,0,0,0,0,0,8.4874,8.4946,8.5003,8.5099,8.5127,8.5162,8.5204,8.5212,8.5268,8.5291,8.533,8.5385,8.5456,8.5502,8.557,8.5689,8.5704,8.5742,8.5754,8.5764,8.5775,8.5843,8.5861,8.5669,8.5669,8.5669,0,0,8.4916,8.4963,8.5007,8.5106,8.5149,8.5223,8.5181,8.5261,8.5316,8.5302,8.5403,8.5435,8.5497,8.5609,8.5661,8.5638,8.5832,8.5775,8.5782,8.5788,8.5853,8.5871,8.5887,8.5675,8.5674,8.5673,0,0,8.5031,8.5073,8.5159,8.5204,8.527,8.5293,8.5314,8.5377,8.5398,8.55,8.5492,8.5558,8.5679,8.5725,8.5764,8.5899,8.5889,8.5921,8.5984,8.605,8.6065,8.6078,8.6128,8.6145,8.5932,8.5932,8.5932,0,8.5074,8.5187,8.5203,8.5286,8.533,8.5323,8.541,8.5452,8.5536,8.5567,8.554,8.5695,8.5736,8.586,8.5894,8.5925,8.595,8.5913,8.6061,8.6075,8.6088,8.6135,8.6154,8.5935,8.5935,8.5935,8.5934,0,8.5238,8.5316,8.5377,8.5461,8.5512,8.5596,8.5626,8.5676,8.568,8.5706,8.5811,8.5861,8.594,8.597,8.5974,8.6096,8.608,8.6057,8.6009,8.6109,8.6154,8.6173,8.594,8.5939,8.5938,8.5937,0,0,8.5373,8.5467,8.549,8.5528,8.5602,8.5663,8.5747,8.5826,8.5869,8.5928,8.5999,8.6104,8.6085,8.6129,8.6139,8.6196,8.6302,8.6167,8.6169,8.6191,8.6441,8.6458,8.6479,8.6296,8.63,8.6302,8.6436,0,8.5496,8.5646,8.5665,8.5798,8.5871,8.5866,8.594,8.5993,8.6021,8.6087,8.6117,8.6192,8.6159,8.6187,8.6243,8.6277,8.6353,8.6268,8.6364,8.6367,8.6348,8.6502,8.6519,8.6643,8.6454,8.6457,8.6459,0,8.5658,8.5724,8.5865,8.5931,8.5962,8.6028,8.6103,8.6166,8.6227,8.6243,8.6294,8.6297,8.6385,8.6335,8.6457,8.6399,8.6439,8.6462,8.6467,8.6477,8.6419,8.6516,8.6683,8.6702,8.6486,8.6484,8.6482,0,8.5745,8.5868,8.5969,8.6002,8.6081,8.6128,8.6163,8.6221,8.6268,8.6333,8.6364,8.6438,8.6479,8.6537,8.656,8.6521,8.6682,8.6632,8.6698,8.6698,8.6732,8.673,8.6908,8.6758,8.6757,8.6757,8.6757,0,8.588,8.5966,8.6009,8.6071,8.6169,8.619,8.6286,8.6319,8.6371,8.644,8.644,8.6505,8.6531,8.6601,8.6619,8.6719,8.6737,8.6753,8.6757,8.6753,8.6751,8.678,8.6772,8.6762,8.6761,8.676,8.6759,0,8.5992,8.6024,8.6134,8.6201,8.622,8.6289,8.6346,8.6406,8.6434,8.6521,8.6543,8.6586,8.6668,8.6698,8.6796,8.6809,8.6925,8.6921,8.6904,8.6905,8.697,8.6964,8.7173,8.7203,8.7032,8.7034,8.7035,0,8.6076,8.6143,8.6218,8.6265,8.6302,8.6377,8.6425,8.6449,8.65,8.6576,8.6628,8.6709,8.6776,8.6906,8.6947,8.7023,8.7022,8.709,8.7033,8.7028,8.7024,8.702,8.7028,8.71,8.7102,8.7104,8.7105,0,8.6223,8.6236,8.6307,8.6384,8.6442,8.6503,8.6562,8.6601,8.6634,8.6691,8.6775,8.6827,8.6929,8.701,8.7089,8.7125,8.7121,8.7123,8.7142,8.7139,8.7127,8.7136,8.6934,8.7118,8.7116,8.7115,8.7115,8.7114,8.6325,8.6385,8.6448,8.6527,8.6574,8.6631,8.6691,8.6728,8.6799,8.6884,8.6894,8.6985,8.7047,8.7152,8.7192,8.7264,8.7245,8.7273,8.728,8.7287,8.7293,8.7116,8.7278,8.7278,8.7278,8.7277,8.7277,0,8.6472,8.6513,8.6586,8.667,8.6733,8.6725,8.6791,8.6843,8.6924,8.6982,8.7048,8.7146,8.7225,8.7273,8.7353,8.7402,8.7402,8.7422,8.7419,8.7428,8.7304,8.728,8.7421,8.7421,8.7421,8.742,8.742,8.742,8.6557,8.6659,8.668,8.6806,8.6846,8.6936,8.6975,8.7027,8.7074,8.7183,8.725,8.7281,8.7335,8.742,8.7493,8.7505,8.7535,8.7557,8.7567,8.7451,8.7436,8.7422,8.7399,8.7563,8.7563,8.7685,8.7687,8.7687]}]]